星链-34582 (STARLINK-34582)

导读

STARLINK-34582是美国SpaceX公司星链(Starlink)星座的卫星成员,于2025年7月8日发射入轨。星链是目前全球规模最大的低轨卫星互联网星座,旨在为全球传统网络覆盖薄弱区域提供高速互联网接入服务。该卫星运行在近地轨道,属于SpaceX持续扩容星链星座的组成部分,将助力提升星座的全球覆盖能力与通信服务容量,支撑星链面向个人、商业及特殊场景的互联网服务。

Basic Information
目录编号:
64781
目录名称:
STARLINK-34582
国际标识:
2025-147AC
轨道中心:
EARTH
卫星名称:
星链-34582
卫星全名:
星链-34582 (STARLINK-34582)
卫星状态:
在轨 (已飞行434 天)
发射日期:
2025-07-08 UTC
国别 :
美国 (US)
星等 :
--
This satellite is enrolled in the Space Conjunction Data Service (SCDS) and the current flight risk assessment level is: High Risk
Orbit Information
数据来源 国际轨道数据
星历时间: 2026-09-14T06:25:04+0800
1天前
查看轨道信息
半长轴: 6840.794km
偏心率: 0.0001336
轨道倾角: 53.159°
近地点辐角 91.887°
升交点赤经 84.053°
平近点角 268.228°
近地点: 461.743km
远地点: 463.571km
周期: 93.847分钟
每日圈数: 15.344157
Detailed Information
固有亮度:
5
最大亮度:
2.5
卫星平台:
Starlink V1.0
覆盖范围:
全球
运营商:
太空探索技术公司
运营商所在国:
美国
制造商(研发单位):
太空探索技术公司
制造商所在国:
美国
使用方式:
暂无
Satellite Introduction
Starlink 计划是 SpaceX 推出的全球卫星互联网项目,通过发射低轨道卫星,为全球尤其是偏远地区提供高速、低延迟的互联网服务。自 2019 年起,Starlink 已部署数千颗卫星,旨在缩小全球数字鸿沟,推动互联网普及。该项目还为军事、航空等行业提供通信支持,带来广泛经济效益。
2D Orbit Map
3D Orbit Map
Orbit Altitude Analysis Chart
Orbit Inclination Analysis Chart
Orbit Comprehensive Analysis Chart
View Comprehensive Chart
Conjunction Data List
Event ID Objects TCA Miss Dist (km) Collision Risk Probability Collision Risk Index (CRI) Action
CDM_260915-174605-817006-478121
2026-09-15T
17:46:11+0000
0.101 km
中距离
8.417115E-4 高风险 0.94
CDM_260917-133506-478106-895321
2026-09-17T
13:35:32+0000
0.359 km
远距离
1.585861E-4 高风险 0.79
CDM_260917-094106-478106-895321
2026-09-17T
09:41:04+0000
0.506 km
远距离
6.836004E-5 中风险 0.72
CDM_260917-014606-126206-478121
2026-09-17T
01:46:29+0000
0.820 km
远距离
2.471302E-5 中风险 0.63
CDM_260917-115806-324006-478121
2026-09-17T
11:58:04+0000
1.977 km
极远距离
2.448775E-6 低风险 0.43
CDM_260916-215206-126206-478121
2026-09-16T
21:52:00+0000
1.676 km
极远距离
2.318137E-6 低风险 0.42
CDM_260915-200605-817006-478121
2026-09-15T
20:06:52+0000
1.487 km
极远距离
1.978108E-6 低风险 0.41
CDM_260917-080706-478106-895321
2026-09-17T
08:07:17+0000
1.690 km
极远距离
1.47792E-6 低风险 0.38
CDM_260917-150906-478106-895321
2026-09-17T
15:09:19+0000
1.737 km
极远距离
1.371825E-6 低风险 0.38
CDM_260915-214005-817006-478121
2026-09-15T
21:40:40+0000
2.004 km
极远距离
9.039801E-7 极低风险 0.34
Miss Distance Evolution Trend with All Objects Subscribe to Flight Safety Assessment
Collision Probability Evolution Trend with All Objects Subscribe to Flight Safety Assessment